sat.trackr.live / text

‹ back to catalog

STARLINK-30785

NORAD 58191 · 2023-167S

PAYLOAD ACTIVE UNKNOWN

§ Identity

Operator
Country
US
Launch date
2023-10-30
Launch site
AFETR
Launch vehicle
Mass (kg)
RCS (m²)

Purposes: comms

External: N2YO · Heavens-Above · Gunter

§ Orbital elements

Epoch: 2026-05-25T04:37:19.153056Z

Period
94.27 min
Inclination
43.0040°
Eccentricity
0.0001159
Mean motion
15.27577711 rev/d
Perigee alt
482.3 km
Apogee alt
483.9 km
Semi-major
6,861.2 km
B*
1.0295e-5
RAAN
71.4826°
Arg perigee
245.4738°
Mean anomaly
114.5993°
Rev number
14,268

§ Raw data

STARLINK-307851 58191U 23167S   26145.19258279  .00000021  00000+0  10295-4 0  99972 58191  43.0040  71.4826 0001159 245.4738 114.5993 15.27577711142680

JSON: /api/v1/satellites/58191 · /tle

For live sub-satellite position, see the globe view (requires WebGL).

§ Visibility from observer

Set your observer location to see the next 7 days of passes ≥ 10°. The values pass through the URL so the page stays shareable.

No JS? Fill the form by hand. The geolocation button needs JavaScript.